Flag for India Weather past 2 weeks in Gandhinagar, Gujarat, India

Now
54 °F

Passing clouds.


Feels Like: 54 °F
Forecast: 54 / 82 °F
Wind: No wind

Location: Ahmadabad Airport

Current Time: Dec 20, 2014 at 11:38:07 PM

Latest Report: Dec 20, 2014 at 10:40 PM


Visibility: 2 mi

Pressure: 30.01 "Hg

Humidity: 72%

Dew point: 45 °F

Location of GandhinagarLocation

Historic Weather in Gandhinagar — Graph

°F

Gandhinagar temperature yesterday

Maximum temperature yesterday: 81 °F (at 3:10 PM)
Minimum temperature yesterday: 52 °F (at 5:40 AM)
Average temperature yesterday: 66 °F

Past Weeks' High & Low Weather Summary

 TemperatureHumidityPressure
High90 °F (Dec 8, 3:10 PM)88% (Dec 13, 5:10 AM)30.18 "Hg (Dec 13, 5:10 AM)
Low46 °F (Dec 15, 5:40 AM)18% (Dec 15, 2:10 PM)29.80 "Hg (Dec 12, 4:10 PM)
Average68 °F49%29.98 "Hg
* Reported Dec 5 9:40 PM — Dec 20 9:40 PM, Gandhinagar, Weather by CustomWeather, © 2014

Note: Actual official high and low records may vary slightly from our data, if they occured in-between our weather recording intervals... More about our weather records

Advertising

Gandhinagar weather history for previous 24 hours

 ConditionsComfort  
Time TempWeatherWind HumidityBarometerVisibility
9:40 PM
Dec 20
57 °FPassing clouds.No wind67%30.01 "Hg2 mi
9:10 PM57 °FPassing clouds.No wind67%30.01 "Hg2 mi
8:40 PM61 °FPassing clouds.3 mph59%30.01 "Hg2 mi
8:10 PM61 °FPassing clouds.5 mph59%30.01 "Hg2 mi
7:40 PM61 °FPassing clouds.2 mph63%30.01 "Hg2 mi
6:40 PM63 °FPassing clouds.3 mph56%29.98 "Hg2 mi
5:40 PM70 °FScattered clouds.3 mph43%29.95 "Hg3 mi
4:40 PMN/A9 mphN/AN/A4 mi
4:10 PMN/A9 mphN/AN/A4 mi
3:40 PM75 °FPartly sunny.5 mph39%29.98 "Hg4 mi
2:40 PMN/A9 mphN/AN/A4 mi
2:10 PMN/A6 mphN/AN/A4 mi
1:40 PM73 °FPartly sunny.5 mph44%30.01 "Hg3 mi
1:10 PM73 °FPartly sunny.9 mph44%30.01 "Hg3 mi
12:40 PM72 °FPartly sunny.7 mph44%30.04 "Hg3 mi
12:10 PM72 °FPartly sunny.7 mph44%30.07 "Hg3 mi
11:10 AM70 °FPartly sunny.8 mph43%30.09 "Hg2 mi
10:40 AM68 °FPartly sunny.7 mph46%30.09 "Hg2 mi
9:40 AM66 °FScattered clouds.7 mph49%30.09 "Hg2 mi
9:10 AM63 °FPartly sunny.9 mph52%30.09 "Hg2 mi
7:40 AM61 °FPassing clouds.6 mph55%30.07 "Hg2 mi
6:40 AM59 °FPassing clouds.5 mph59%30.07 "Hg2 mi
6:10 AM59 °FPassing clouds.6 mph59%30.04 "Hg2 mi
5:40 AM59 °FPassing clouds.6 mph59%30.04 "Hg2 mi
4:40 AM57 °FPassing clouds.5 mph63%30.04 "Hg2 mi
4:10 AM59 °FPassing clouds.5 mph59%30.04 "Hg2 mi
3:40 AM61 °FPassing clouds.6 mph55%30.04 "Hg2 mi
3:10 AM59 °FPassing clouds.5 mph59%30.04 "Hg2 mi
2:40 AM61 °FPassing clouds.6 mph55%30.04 "Hg2 mi
2:10 AM61 °FPassing clouds.5 mph55%30.04 "Hg2 mi
1:40 AM61 °FPassing clouds.6 mph55%30.07 "Hg2 mi
1:10 AM61 °FPassing clouds.5 mph55%30.07 "Hg2 mi
12:40 AM63 °FPassing clouds.6 mph52%30.07 "Hg2 mi
12:10 AM63 °FPassing clouds.5 mph49%30.07 "Hg2 mi
11:40 PM
Dec 19
64 °FPassing clouds.6 mph46%30.07 "Hg2 mi
11:10 PM64 °FPassing clouds.6 mph46%30.07 "Hg2 mi
Weather by CustomWeather, © 2014

See weather overviewHow to use our weather pages